Regional Weather Roundup
Issued by NWS Grand Forks, ND

Home | Current Version | Previous Version | Text Only | Print | Product List | Glossary Off
Versions: 1 2 3 4 5 6 7 8 9 10 11 12 13 14 15 16 17 18 19 20 21 22 23 24 25 26 27 28 29 30 31 32 33 34 35 36 37 38 39 40 41 42 43 44 45 46 47 48 49 50

882
ASUS43 KFGF 050931
RWRFGF
PRAIRIE TO PINES  WEATHER ROUNDUP
NATIONAL WEATHER SERVICE EASTERN NORTH DAKOTA/GRAND FORKS ND
400 AM CDT THU MAY 05 2016

 **SATELLITE DATA USED TO AUGMENT SKY COVER AT AUTOMATED STATIONS**
 *****  WEATHER ACROSS EASTERN NORTH DAKOTA  *****

CITY           SKY/WX    TMP DP  RH WIND       PRES   REMARKS
GRAND FORKS    PTCLDY    53  32  44 S10       29.83F
GRAND FRKS AFB CLEAR     57  32  38 SW10      29.83F
DEVILS LAKE    CLEAR     59  44  57 SW13      29.86F
FARGO          PTCLDY    51  31  46 S9        29.91S
WAHPETON ARPT  SUNNY     46  30  53 SE6       29.95R
$$

 ***** WEATHER ACROSS CENTRAL AND WESTERN NORTH DAKOTA  *****

CITY           SKY/WX    TMP DP  RH WIND       PRES   REMARKS
BISMARCK       CLEAR     59  45  59 SW7       29.92F
MINOT          CLEAR     66  41  40 SW16      29.84F
JAMESTOWN      CLEAR     50  41  71 SW6       29.90F
MINOT AFB      CLEAR     61  43  51 SW13      29.82F
GARRISON         N/A     51  42  71 SW5       29.89F
WILLISTON      CLEAR     47  41  80 CALM      29.85F
DICKINSON      CLEAR     54  41  61 S13       29.91F
HETTINGER      CLEAR     55  41  59 SE6       29.97F
$$

 *****  OTHER AIRPORT OBSERVATIONS IN OUR AREA  *****

CITY           SKY/WX    TMP DP  RH WIND       PRES   REMARKS
WALHALLA       FAIR      64  43  45 W14G23    29.78S
GRAFTON AIRPOR FAIR      46  36  66 S8        29.82F
VALLEY CITY AR FAIR      50  37  62 SW10      29.92F
CANDO          FAIR      57  45  62 W12       29.87R
CAVALIER APRT  FAIR      64  41  42 W18G28    29.78F
GWINNER        FAIR      52  34  50 SW14      29.94S
SHEYENNE NWR     N/A     45  34  66 SW5       29.95S
ROLLA          FAIR      59  41  51 SW17      29.84S
 ***** THE ABOVE OBSERVATIONS ARE NON NWS ARE NOT QUALITY
       CONTROLLED AND MAY MIS-REPORT RAIN FOR SNOW...
$$

  *****  WEATHER ACROSS NORTHERN MINNESOTA  *****

CITY           SKY/WX    TMP DP  RH WIND       PRES   REMARKS
FLAG ISLAND    PTCLDY    50  36  57 S15       29.86S
WARROAD        PTCLDY    50  32  50 S10       29.87F
ROSEAU         PTCLDY    52  34  50 S9        29.86S
HALLOCK        CLEAR     50  27  40 S12       29.80F
THF RVR FALLS  PTCLDY    52  28  40 SE9       29.90S
BAUDETTE       CLOUDY    51  23  33 S7        29.91S
WASKISH        LGT RAIN  50  25  37 S5        29.94R
CROOKSTON      CLEAR     52  30  43 S12       29.88F
STEPHEN NDAWN    N/A     54  30  40 S13         N/A
GREENBUSH NDAW   N/A     52  34  50 S9          N/A
$$
  *****  WEATHER ACROSS CENTRAL AND WEST MINNESOTA  *****

CITY           SKY/WX    TMP DP  RH WIND       PRES   REMARKS
FOSSTON        CLEAR     48  28  46 S9        29.92F
BEMIDJI        CLOUDY    45  28  50 S6        29.96R
PARK RAPIDS    CLEAR     47  27  45 SE6       29.95F
ELBOW LAKE     FAIR      44  34  69 S7        29.97F
WADENA         CLEAR     43  28  56 CALM      29.96S
DETROIT LAKES  CLEAR     48  37  66 SE6       29.95S
MOORHEAD       CLEAR     48  32  53 S9        29.93S
FERGUS FALLS   CLEAR     46  36  66 S7        29.94F
MORRIS MN      CLEAR     43  34  70 SE5       29.97S
STAPLES        CLEAR     39  30  70 CALM      29.98R
$$
  *****  WEATHER ELSEWHERE ACROSS MINNESOTA  *****

CITY           SKY/WX    TMP DP  RH WIND       PRES   REMARKS
DULUTH         CLOUDY    39  30  70 SE3       29.99S
INTRNTL FALLS  CLOUDY    45  30  55 S8        29.93F
ELY            CLOUDY    37  30  75 SW5       29.97F
CLOQUET        CLOUDY    37  30  75 CALM      29.99R
WHEATON        CLEAR     54  34  47 S7        29.98R
BRAINERD       MOCLDY    40  32  73 CALM      29.99R
HIBBING        LGT RAIN  37  32  82 CALM      29.97S
ALEXANDRIA     CLEAR     46  29  51 S7        29.99S
SAINT CLOUD    CLOUDY    37  32  82 S3        29.99S
MINNEAPOLIS    CLEAR     47  26  44 S6        30.02S
$$

  *****  WEATHER ACROSS SOUTH DAKOTA  *****

CITY           SKY/WX    TMP DP  RH WIND       PRES   REMARKS
SIOUX FALLS    CLEAR     41  36  82 CALM      30.02F
BROOKINGS      CLEAR     44  35  70 SE6       30.01S
WATERTOWN      CLEAR     41  34  76 S5        29.99F
HURON          CLEAR     47  41  80 S5        29.99F
SISSETON         N/A     50  32  50 S6        29.94F
ABERDEEN       CLEAR     42  35  76 SW6       29.97S
MITCHELL       CLEAR     47  42  83 SE3       30.02S
PIERRE         CLEAR     46  38  73 CALM      29.99F
MOBRIDGE       CLEAR     51  44  77 SE9       29.94F
RAPID CITY     CLEAR     47  42  83 SE8       29.98F
$$

  *****  SOME WEATHER IN NEARBY STATES *****

CITY           SKY/WX    TMP DP  RH WIND       PRES   REMARKS
GLASGOW MT     PTCLDY    56  40  55 E13       29.82S
GREAT FALLS MT MOCLDY    54  38  54 CALM      29.89F
CHEYENNE WY    PTCLDY    48  34  58 SW9       30.15F
SCOTTSBLUFF NE CLEAR     49  40  71 E8        30.07F
OMAHA NE       CLEAR     47  42  83 N3        30.02S
DES MOINES IA  CLEAR     46  37  71 CALM      30.00R
DAVENPORT IA   CLEAR     39  34  82 N7        29.96R
CHICAGO IL     CLOUDY    43  33  68 N16       29.88S
EAU CLAIRE WI  CLEAR     34  29  82 E3        30.01R
LA CROSSE WI   CLEAR     42  33  70 N3        30.01R
$$

  *****  SOME NATIONAL WEATHER *****

CITY           SKY/WX    TMP DP  RH WIND       PRES   REMARKS
LA GUARDIA NY  CLOUDY    48  45  87 NE13      29.70S
RALEIGH NC     FOG       55  54  94 CALM      29.55S VSB 1/4
ATLANTA GA     CLEAR     51  47  86 W10       29.73S
NEW ORLEANS LA CLEAR     63  56  78 W6        29.86S
OKLAHOMA CITY  CLEAR     54  43  66 CALM      30.05R
ALBUQUERQUE NM CLEAR     57  25  29 N6        30.18F
SALT LAKE CITY CLOUDY    65  33  30 SE10      29.94F
LOS ANGELES CA MOCLDY    59  53  80 W5        29.92F
BOISE ID       CLOUDY    66  44  45 NW13G20   29.87R
SEATTLE WA     MOCLDY    53  46  77 N6        30.03S
$$

*** WEATHER ACROSS MANITOBA...SASKATCHEWAN AND ONTARIO ***
                ***ONTARIO***

CITY           SKY/WX    TMP DP  RH WIND       PRES   REMARKS
GERALDTON      FOG       30  30 100 SW6       29.95F VSB 1/4 WCI  24
THUNDER BAY    MOCLDY    28  28 100 NW3       29.98F
SIOUX LOOKOUT  MOCLDY    41  37  87 SW8       29.84F
TORONTO        PTCLDY    46  41  81 N7        29.77R
BIG TROUT LK   PTCLDY    37  28  70 SW7       29.66F
PICKLE LAKE    NOT AVBL
DRYDEN         CLOUDY    45  37  76 SW9       29.87R
KENORA         TSTM      46  34  61 S14G22    29.87F
$$
                *** MANITOBA***

CITY           SKY/WX    TMP DP  RH WIND       PRES   REMARKS
BRANDON        CLEAR     52  39  62 W8        29.76F
DAUPHIN        CLEAR     66  37  34 W12       29.67S
ISLAND LAKE    MOCLDY    43  32  65 S3        29.63F
PILOT MOUND      N/A     54  41  62 SW10        N/A
THE PAS        CLEAR     52  39  62 VRB6      29.53S
THOMPSON       PTCLDY    39  36  87 N8        29.59S
WINNIPEG       CLEAR     55  36  47 S15       29.73F
LYNN LAKE      MOCLDY    48  37  66 NE9       29.60F
CHURCHILL      PTCLDY    27  21  80 NE20G28   29.83R WCI  13
GILLAM         PTCLDY    39  34  81 NE16      29.63R
$$
                ***SASKATCHEWAN***

CITY           SKY/WX    TMP DP  RH WIND       PRES   REMARKS
ESTEVAN        CLEAR     59  41  51 SW14      29.81S
KINDERSLEY     CLEAR     57  39  51 S8        29.71F
LLOYDMINSTER   MOCLDY    57  39  51 N8        29.74R
PRINCE ALBERT  MOCLDY    55  37  50 W5        29.67S
REGINA         CLEAR     57  36  44 S7        29.77S
YORKTON        CLEAR     59  39  47 SW9       29.71F
N. BATTLEFORD  CLEAR     57  37  47 E6        29.70F
LA RONGE       PTCLDY    66  39  37 W15       29.58R SMOKE
SASKATOON      MOCLDY    59  41  51 CALM      29.72F
SWIFT CURRENT  CLEAR     59  37  44 SW12G17   29.78F
$$
NOTE: THESE ARE AUTOMATED STATIONS WITH LIMITED QUALITY CONTROL
      "FAIR" INDICATES FEW OR NO CLOUDS BELOW 12,000 FEET WITH NO
      SIGNIFICANT WEATHER AND/OR OBSTRUCTIONS TO VISIBILITY.
      SKY/WX - SKY CONDITION AND SIGNIFICANT WEATHER.
      TMP - AIR TEMPERATURE.    DP   - DEWPOINT TEMPERATURE.
      RH  - RELATIVE HUMIDITY.  PRES - PRESSURE.
      HX  - HEAT INDEX.         WCI  - WIND CHILL INDEX.
$




USA.gov is the U.S. government's official web portal to all federal, state and local government web resources and services.